Weather History for Jefferson, NC

Change the Weather History Date:

Wednesday, June 19, 2013

  Actual Average Record
Temperature  
Mean Temperature 64 °F -  
Max Temperature 72 °F 78 °F 85 °F (1984)
Min Temperature 57 °F 57 °F 43 °F (1986)
Growing Degree Days 14 (Base 50)    
Moisture  
Dew Point 57 °F    
Average Humidity 79    
Maximum Humidity 94    
Minimum Humidity 58    
Precipitation  
Precipitation 0.30 in - - ()
Sea Level Pressure  
Sea Level Pressure 30.13 in    
Wind  
Wind Speed 2 mph (NE)    
Max Wind Speed 12 mph    
Max Gust Speed 18 mph    
Visibility 9 miles    
Events Rain    
Averages and records for this station are not official NWS values.
T = Trace of Precipitation, MM = Missing Value Source: NWS Daily Summary

Daily Weather History Graph

Daily Weather History Graph

Search for Another Location

Airport:

Trip Planner

Search our weather history database for the weather conditions in past years. The results will help you decide how hot, cold, wet, or windy it might be!

Date:

Astronomy

Jun. 19, 2013 Rise Set
Actual Time 6:07 AM EDT 8:46 PM EDT
Civil Twilight 5:37 AM EDT 9:17 PM EDT
Nautical Twilight 4:59 AM EDT 9:55 PM EDT
Astronomical Twilight 4:16 AM EDT 10:37 PM EDT
Moon 4:42 PM EDT (6/19) 2:45 AM EDT (6/19)
Length of Visible Light 15h 39m
Length of Day
14h 38m
Waxing Gibbous, 80% of the Moon is Illuminated
Jun 19
Waxing Gibbous
Jun 23
Full
Jun 30
Last Quarter
Jul 8
New
Jul 15
First Quarter

Hourly Weather History & Observations

Time (EDT) Temp. Dew Point Humidity Pressure Visibility Wind Dir Wind Speed Gust Speed Precip Events Conditions
12:15 AM 61.7 °F 55.6 °F 80% 30.04 in 10.0 mi NW 4.6 mph - N/A   Mostly Cloudy
12:35 AM 59.0 °F 55.6 °F 88% 30.04 in 10.0 mi Calm Calm - N/A   Clear
12:55 AM 60.8 °F 55.4 °F 82% 30.05 in 10.0 mi Calm Calm - N/A   Clear
1:15 AM 60.4 °F 55.4 °F 83% 30.05 in 10.0 mi Calm Calm - N/A   Clear
1:35 AM 60.8 °F 54.7 °F 80% 30.04 in 10.0 mi NW 4.6 mph - N/A   Clear
1:55 AM 60.4 °F 54.5 °F 81% 30.04 in 10.0 mi NW 3.5 mph - N/A   Clear
2:15 AM 60.3 °F 54.7 °F 82% 30.04 in 10.0 mi WNW 3.5 mph - N/A   Clear
2:35 AM 60.4 °F 54.7 °F 81% 30.04 in 10.0 mi Calm Calm - N/A   Mostly Cloudy
2:55 AM 59.4 °F 54.5 °F 84% 30.04 in 10.0 mi Calm Calm - N/A   Scattered Clouds
3:15 AM 58.6 °F 54.7 °F 87% 30.04 in 10.0 mi Calm Calm - N/A   Clear
3:35 AM 58.6 °F 54.7 °F 87% 30.04 in 10.0 mi Calm Calm - N/A   Clear
3:55 AM 58.8 °F 54.5 °F 86% 30.04 in 10.0 mi Calm Calm - N/A   Clear
4:15 AM 58.3 °F 54.5 °F 87% 30.04 in 10.0 mi Calm Calm - N/A   Clear
4:35 AM 59.2 °F 54.5 °F 84% 30.04 in 10.0 mi Calm Calm - N/A   Clear
4:55 AM 58.5 °F 54.3 °F 86% 30.04 in 10.0 mi Calm Calm - N/A   Clear
5:15 AM 58.6 °F 54.3 °F 86% 30.04 in 10.0 mi Calm Calm - N/A   Clear
5:35 AM 59.9 °F 54.1 °F 81% 30.04 in 10.0 mi Calm Calm - N/A   Clear
5:55 AM 58.1 °F 54.3 °F 87% 30.06 in 10.0 mi Calm Calm - N/A   Clear
6:15 AM 58.1 °F 54.1 °F 87% 30.06 in 10.0 mi Calm Calm - N/A   Clear
6:35 AM 58.8 °F 54.3 °F 85% 30.07 in 10.0 mi Calm Calm - N/A   Clear
6:55 AM 57.6 °F 54.7 °F 90% 30.08 in 7.0 mi Calm Calm - N/A   Clear
7:15 AM 57.2 °F 54.9 °F 92% 30.09 in 7.0 mi Calm Calm - N/A   Clear
7:35 AM 59.2 °F 55.6 °F 88% 30.09 in 10.0 mi Calm Calm - N/A   Clear
7:55 AM 58.6 °F 55.6 °F 90% 30.10 in 10.0 mi Calm Calm - N/A   Clear
8:35 AM 61.2 °F 57.2 °F 87% 30.12 in 10.0 mi Calm Calm - N/A   Clear
8:55 AM 61.9 °F 56.8 °F 84% 30.12 in 10.0 mi Calm Calm - N/A   Clear
9:15 AM 64.6 °F 57.0 °F 76% 30.13 in 10.0 mi Calm Calm - N/A   Clear
9:35 AM 65.3 °F 59.2 °F 81% 30.13 in 10.0 mi Calm Calm - N/A   Clear
9:55 AM 65.7 °F 58.3 °F 77% 30.13 in 10.0 mi ENE 3.5 mph - N/A   Clear
10:15 AM 66.9 °F 56.8 °F 70% 30.13 in 10.0 mi NE 3.5 mph - N/A   Clear
10:35 AM 67.1 °F 53.6 °F 62% 30.13 in 10.0 mi North 5.8 mph - N/A   Clear
10:55 AM 67.3 °F 54.3 °F 63% 30.13 in 10.0 mi NNE 4.6 mph - N/A   Clear
11:15 AM 67.6 °F 54.5 °F 63% 30.13 in 10.0 mi Calm Calm - N/A   Clear
11:35 AM 69.1 °F 55.4 °F 62% 30.14 in 10.0 mi ENE 3.5 mph - N/A   Clear
11:55 AM 70.0 °F 56.5 °F 62% 30.14 in 10.0 mi Calm Calm - N/A   Clear
12:15 PM 69.8 °F 55.4 °F 60% 30.15 in 10.0 mi NE 3.5 mph - N/A   Clear
12:35 PM 70.2 °F 55.9 °F 61% 30.15 in 10.0 mi NE 3.5 mph - N/A   Scattered Clouds
12:55 PM 70.7 °F 55.2 °F 58% 30.15 in 10.0 mi NE 4.6 mph - N/A   Scattered Clouds
1:15 PM 70.3 °F 55.0 °F 58% 30.15 in 10.0 mi East 5.8 mph - N/A   Mostly Cloudy
1:35 PM 70.7 °F 55.6 °F 59% 30.15 in 10.0 mi ENE 4.6 mph - N/A   Mostly Cloudy
1:55 PM 70.3 °F 55.4 °F 59% 30.15 in 10.0 mi ENE 3.5 mph - N/A   Overcast
2:15 PM 69.8 °F 55.8 °F 61% 30.15 in 10.0 mi East 4.6 mph - N/A   Overcast
2:35 PM 70.2 °F 57.2 °F 63% 30.15 in 10.0 mi Calm Calm - N/A Rain Light Rain
2:55 PM 70.0 °F 55.8 °F 61% 30.14 in 10.0 mi Calm Calm - N/A   Overcast
3:15 PM 71.4 °F 59.9 °F 67% 30.14 in 10.0 mi SSE 3.5 mph - N/A   Mostly Cloudy
3:35 PM 72.1 °F 59.2 °F 64% 30.14 in 10.0 mi ESE 6.9 mph - N/A   Scattered Clouds
3:55 PM 70.9 °F 59.2 °F 66% 30.13 in 10.0 mi ESE 4.6 mph - N/A   Mostly Cloudy
4:15 PM 69.8 °F 58.1 °F 66% 30.14 in 10.0 mi Calm Calm - N/A   Overcast
4:35 PM 63.3 °F 60.1 °F 89% 30.17 in 2.5 mi NW 11.5 mph 18.4 mph 0.06 in Rain Heavy Rain
4:55 PM 61.2 °F 57.4 °F 87% 30.17 in 2.5 mi Calm Calm - 0.29 in Rain Rain
5:15 PM 61.2 °F 58.1 °F 90% 30.16 in 7.0 mi Calm Calm - 0.01 in Rain Light Rain
5:35 PM 63.0 °F 58.1 °F 84% 30.15 in 10.0 mi Calm Calm - 0.01 in   Overcast
5:55 PM 63.9 °F 57.9 °F 81% 30.15 in 10.0 mi West 4.6 mph - 0.01 in   Overcast
6:15 PM 65.1 °F 59.0 °F 81% 30.16 in 10.0 mi West 3.5 mph - N/A   Overcast
6:35 PM 66.4 °F 57.7 °F 74% 30.16 in 10.0 mi Calm Calm - N/A   Overcast
6:55 PM 66.4 °F 58.8 °F 77% 30.16 in 10.0 mi Calm Calm - N/A   Overcast
7:15 PM 67.8 °F 59.0 °F 73% 30.17 in 10.0 mi Calm Calm - N/A   Overcast
7:35 PM 66.4 °F 59.2 °F 78% 30.17 in 10.0 mi Calm Calm - N/A   Scattered Clouds
7:55 PM 66.2 °F 59.2 °F 78% 30.18 in 10.0 mi Calm Calm - N/A   Clear
8:15 PM 63.7 °F 60.8 °F 90% 30.18 in 10.0 mi Calm Calm - N/A   Scattered Clouds
8:35 PM 63.7 °F 61.0 °F 91% 30.19 in 3.0 mi SE 3.5 mph - N/A   Mostly Cloudy
8:55 PM 62.6 °F 60.1 °F 91% 30.19 in 4.0 mi Calm Calm - N/A   Mostly Cloudy
9:15 PM 62.4 °F 59.7 °F 91% 30.19 in 7.0 mi Calm Calm - N/A   Scattered Clouds
9:35 PM 61.9 °F 59.5 °F 92% 30.20 in 7.0 mi Calm Calm - N/A   Clear
9:55 PM 62.2 °F 59.7 °F 91% 30.21 in 7.0 mi Calm Calm - N/A   Clear
10:15 PM 61.9 °F 59.4 °F 91% 30.21 in 7.0 mi Calm Calm - N/A   Clear
10:35 PM 61.3 °F 59.0 °F 92% 30.23 in 3.0 mi Calm Calm - N/A   Clear
10:55 PM 61.5 °F 59.4 °F 93% 30.23 in 1.8 mi Calm Calm - N/A   Overcast
11:15 PM 60.8 °F 58.6 °F 93% 30.23 in 0.8 mi Calm Calm - N/A   Overcast
11:35 PM 61.0 °F 59.0 °F 93% 30.24 in 1.5 mi Calm Calm - N/A   Mostly Cloudy
11:55 PM 60.8 °F 59.0 °F 94% 30.24 in 1.8 mi Calm Calm - N/A   Scattered Clouds